CZ-6A DEB

Satellite information

Favourite Embed

Satellite Type and Status

DEBRISIN ORBIT

Key statistics

Satellite CZ-6A DEB at a glance.

Uptime

1129

Days in orbit

Revolutions

≈ 14.6

Per day

Orbit

SSO

Sun Synchronous Orbit

Inclination

98.5

Latest

Satellite identification and parameters

Extended collection of information and parameters for CZ-6A DEB.

Object identification

Identified? True

Debris? True

Object name: CZ-6A DEB

International designator: 2022-151YR

Object number (NORAD): 55543

Object ID (CCSDS): 55543

Country: PEOPLES REPUBLIC OF CHINA (PRC)

Current information (Y/N): Y

RCS size: SMALL

Orbital parameters

Period: 98.881 minutes

Inclination: 98.5371 deg

SMA: 7083.316 km

Apoapsis: 800.199 km

Periapsis: 610.162 km

RAAN: 17.0406 deg

Eccentricy: 0.0134144

Argument of periapsis: 163.126 deg

Mean anomaly: 197.4464 deg

Mean motion: 14.56289977 rev/day

Mean motion (dot): 0.00010482 rev/day2

B* drag term: 0.0021032463 1/REarth

Two-line elements (TLE)

Creation date: Dec. 13, 2025, 4:32 a.m.

Reference frame: TEME

Reference center: EARTH

Epoch: Dec. 12, 2025, 7:49 a.m. UTC

TLE line 0: 0 CZ-6A DEB

TLE line 1: 1 55543U 22151YR 25346.32618083 .00010482 00000-0 21032-2 0 9999

TLE line 2: 2 55543 98.5371 17.0406 0134144 163.1260 197.4464 14.56289977157074

Live tracking on map

Real-time ground track for satellite CZ-6A DEB.

In-orbit conjunctions

A list of the most updated potential collisions computed for object CZ-6A DEB.

Target Orbit TCA Probability of collision Miss distance Type
CZ-4B R/B SSO 2025-06-15 03:15:42 0.0001527408 425.0 (m) ROCKET BODY
SL-8 DEB LEO 2024-11-16 20:01:03 0.0001100855 503.0 (m) DEBRIS
SL-8 R/B LEO 2024-09-04 12:36:05 0.0001042472 278.0 (m) ROCKET BODY

Associated space launch

Chinese satellite reported for atmospheric/ocean/environmental/spatial parameter research purposes, details TBD.

CZ-6A DEB was lifted into orbit during the mission ‘Long March 6A | Yunhai 3’, on board a Long March 6A space rocket.

The launch took place on Nov. 11, 2022, 10:52 p.m. from Launch Complex 9A.

For more information about the launch, click the button.

Launch to space Long March 6A | Yunhai 3
Long March 6A | Yunhai 3

Agency: N/A

Status: Launch Successful

Launch date: Nov. 11, 2022, 10:52 p.m. UTC

Rocket: Long March 6A

Launch pad: Launch Complex 9A

Location: Taiyuan Satellite Launch Center, People's Republic of China

...

Latest news about this satellite

There are no fresh news available about this satellite. Check back as we update our databases every day.


Newsletter sign-up

Weekly statistics, charts and insights to help you stay on top of the space industry.